www.pogodaiklimat.ru

Погода и климат >> Архив погоды >> Латвия >> Павилоста


ПОГОДА в Павилосте

  • Прогноз погоды в Павилосте
  • Монитор погоды в Павилосте

АРХИВ ПОГОДЫ в Павилосте

Время (UTC), дата Ветер
(напр.,м/с)
 
Видим.   Явления Облачность Т
(С)
Тd
(С)
f
(%)
Тe
(С)
Тes
(С)
Комфортность P
(гПа)
Po
(гПа)
Тmin
(С)
Tmax
(С)
R
(мм)
R24
(мм)
S
(см)
00 10.09 ЮВ 3-5
{6}
20 км н/о +17.9 +10.9 64 +18 +18 1014.5 1013.4
03 10.09 ЮВ 3-6
{6}
20 км н/о +16.6 +9.7 64 +16 +16 1013.0 1011.9
06 10.09 ЮВ 5-7
{8}
20 км н/о +16.9 +9.5 62 +16 +16 1012.5 1011.4
09 10.09 ЮВ 5-9
{11}
20 км н/о +19.9 +10.0 53 +21 +21 комфорт 1012.8 1011.7
12 10.09 Ю 6 н/о н/о +21.4 +10.3 49 +23 +23 комфорт 1012.6 1011.7
09 13.09 З 6 н/о н/о +15.0 +13.4 90 +13 +13 1015.5 1014.5
12 13.09 З 6 н/о н/о +15.9 +12.2 79 +15 +15 1015.0 1014.1
15 13.09 СЗ 8 н/о н/о +16.7 +9.2 61 +15 +15 1016.8 1015.8
18 13.09 С 3 н/о н/о +14.9 +10.3 74 +14 +14 1019.4 1018.4
21 13.09 СЗ 8 н/о н/о +16.0 +7.1 55 +14 +14 1020.7 1019.8
00 14.09 СЗ 7 н/о н/о +15.3 +8.5 64 +14 +14 1021.3 1020.3
03 14.09 СЗ 5 н/о н/о +14.4 +9.6 73 +13 +13 1021.6 1020.6
06 14.09 СЗ 6 н/о н/о +14.5 +9.8 73 +13 +13 1022.4 1021.4
09 14.09 СЗ 5 н/о н/о +15.3 +9.0 66 +14 +14 1024.0 1023.0
12 14.09 СЗ 6 н/о н/о +15.7 +7.0 56 +14 +14 1024.0 1023.0
15 14.09 З 6 н/о н/о +15.0 +7.5 61 +13 +13 1023.8 1022.8
18 14.09 З 4 н/о н/о +14.7 +8.6 67 +14 +14 1022.5 1021.5
21 14.09 З 5 н/о н/о +15.2 +9.1 67 +14 +14 1020.8 1019.8
00 15.09 З 5 н/о н/о +15.3 +9.4 68 +14 +14 1018.5 1017.5
03 15.09 З 6 н/о н/о +14.9 +9.2 69 +13 +13 1014.9 1014.0
06 15.09 ЮЗ 6 н/о н/о +12.5 +10.5 88 +10 +10 1010.7 1009.7
09 15.09 ЮЗ 8 н/о н/о +14.3 +11.3 82 +12 +12 1006.3 1005.4
12 15.09 З 8 н/о н/о +15.4 +12.9 85 +13 +13 1003.4 1002.4
15 15.09 З 10 н/о н/о +15.9 +10.4 70 +14 +14 1002.2 1001.3
18 15.09 З 9 н/о н/о +15.4 +7.1 58 +13 +13 1001.8 1000.9
21 15.09 З 9 н/о н/о +14.3 +7.5 64 +12 +12 1001.4 1000.5
00 16.09 З 8 н/о н/о +13.5 +9.1 75 +11 +11 1000.5 999.5
03 16.09 З 8 н/о н/о +13.9 +8.5 70 +11 +11 1000.4 999.5
06 16.09 СЗ 9 н/о н/о +13.8 +8.6 71 +11 +11 1001.3 1000.3
09 16.09 З 7 н/о н/о +14.4 +8.0 65 +12 +12 1002.5 1001.6
12 16.09 З 7 н/о н/о +14.1 +6.8 61 +12 +12 1003.7 1002.7
15 16.09 СЗ 7 н/о н/о +14.2 +4.7 53 +12 +12 1003.8 1002.8
18 16.09 СЗ 9 н/о н/о +14.3 +4.9 53 +12 +12 1003.2 1002.2
21 16.09 СЗ 10 н/о н/о +13.1 +7.4 68 +10 +10 1003.1 1002.1

 

Местоположение метеостанции Павилоста (Латвия): широта 56.88 долгота 21.18 высота над уровнем моря 10 м.

В архиве по умолчанию представлена погода в Павилосте за последнюю неделю. Архивные данные за месяц целиком и за предыдущие месяцы, начиная с января 2011 года, Вы можете получить, выбрав интересующий диапазон дат из раскрывающегося списка и нажав кнопку "Ввод!".


*Определитесь, кто Вы:
робот инопланетянин человек

Внимание! Время в таблицах - всемирное. Для получения местного времени необходимо прибавить поправку, которая равна 2 ч.

Смотрите также архив погоды в соседних городах и на ближайших метеорологических станциях:

Погода в Лиепае (Латвия) (46 км)
Погода в Вентспилсе (Латвия) (62 км)
Погода в Салдусе (Латвия) (83 км)
Погода в Стенде (Латвия) (89 км)
Погода в Мажейкяе (Литва) (91 км)
Погода в Тельшяе (Литва) (121 км)
Погода в Сырве (Эстония) (127 км)
Погода в Kлайпеде (Литва) (128 км)
Погода в Мерсрагсе (Латвия) (128 км)
Погода в Колке (Латвия) (129 км)

Пояснения к столбцам:

Ветер - указаны скорость ветра в м/с - средняя за 10 мин, порывы в срок и между сроками (в фигурных скобках) и направление, откуда дует ветер: С - северный, СВ - северо-восточный, В - восточный, ЮВ - юго-восточный, Ю - южный, ЮЗ - юго-западный, З - западный, СЗ - северо-западный.
Видимость - горизонтальная дальность видимости в метрах или километрах. При видимости от 1 до 10 км при отсутствии осадков обычно наблюдается дымка, при ухудшении видимости до 1 км и менее - туман. В сухую погоду видимость может ухудшаться дымом, пылью или мглою.
Явления - указаны атмосферные явления, наблюдавшиеся в срок или в последний час перед сроком; фигурными скобками обозначены явления, наблюдавшиеся между сроками (за 1-3 часа до срока); квадратными скобками обозначены град или гололедные отложения с указанием их диаметра в мм.
Облачность - указаны через наклонную черту общая и нижняя облачность в баллах и высота нижней границы облаков в метрах; квадратными скобками обозначены формы облаков: Ci - перистые, Cs - перисто-слоистые, Cc - перисто-кучевые, Ac - высококучевые, As - высокослоистые, Sc - слоисто-кучевые, Ns - слоисто-дождевые, Cu - кучевые, Cb - кучево-дождевые. Подробнее классификацию облаков см. в Атласе облаков (PDF).
T - Температура воздуха - температура, измеренная на высоте 2 м над землей.
Td - Температура точки росы - температура, при понижении до которой содержащийся в воздухе водяной пар достигнет насыщения.
f - Относительная влажность воздуха - влажноcть воздуха, измеренная на высоте 2 м над землей.
Te - Эффективная температура - температура, которую ощущает одетый по сезону человек в тени. Характеристика душности погоды. При расчете учитывается влияние влажности воздуха и скорости ветра на теплоощущения человека.
Tes - Эффективная температура на солнце - температура, которую ощущает человек, с поправкой на солнечный нагрев. Характеристика знойности погоды. Зависит от высоты солнца над горизонтом, облачности и скорости ветра. Ночью, в пасмурную погоду, а также при ветре 12 м/с и более поправка равна нулю.
P - Атмосферное давление - приведенное к уровню моря атмосферное давление.
Po - Атмосферное давление - измеренное на уровне метеостанции атмосферное давление.
Tmin - Минимальная температура - минимум температуры воздуха на высоте 2 м над землей.
Tmax - Максимальная температура - максимум температуры воздуха на высоте 2 м над землей.
R - Количество осадков - Количество выпавших осадков за период времени, мм. При наведении курсора мыши на число - период времени, за который выпало указанное количество осадков.
R24 - Количество осадков - Количество выпавших осадков за 24 часа, мм.
S - Снежный покров - Высота снежного покрова, см. При наведении курсора мыши на число - состояние снежного покрова и степень покрытия местности в баллах.